Location: ???? ??
(36.0534°N, 43.5630°E)
Time: 14:42:11
(UTC+00:00)

Cosmos 2333 Rocket - Pass Details

Date: 18 September 2019
Orbit: 840 x 862 km, 70.8° (Epoch: 21 October)

Event Time Altitude Azimuth Distance (km) Brightness Sun altitude
Rises 16:09:13 0° 342° (NNW) 3,420 5.8 -12.8°
Reaches altitude 10° 16:11:43 10° 347° (NNW) 2,484 5.0 -13.3°
Maximum altitude 16:17:20 57° 66° (ENE) 998 2.3 -14.4°
Enters shadow 16:22:01 15° 142° (SE) 2,145 3.9 -15.4°
